Station Historical Data
 
Daily Summary for July 22, 2018 Units:  English    Metric   Both
Next Day »
Daily Weekly Monthly Yearly Custom
  Current: High: Low: Average:
Temperature: 84.8 °F 84.8 °F 70.5 °F 74.2 °F
Dew Point: 61.7 °F 64.2 °F 57.2 °F 59.8 °F
Humidity: 46% 71% 46% 61%
Wind Speed: 6.0mph 11.0mph 0.0mph 1.7mph
Wind Gust: 7.0mph 13.0mph - -
WindSSE - - ESE
Pressure: 30.02 in 30.03 in 29.96 in -
Precipitation: 0.00 in      
Historical Graphs
 
 
Tabular Data for July 22, 2018
Time Temperature Dew Point Pressure Wind Wind Speed Wind Gust Humidity Rainfall Rate (Hourly) solar Conditions
00:04 72.8 °F 57.2 °F 29.98 in Calm   9.0 mph 58% 0.00 in 0.00 W/m2
00:09 72.8 °F 57.2 °F 29.98 in SE 4.0 mph 5.0 mph 58% 0.00 in 0.00 W/m2
00:14 72.8 °F 57.2 °F 29.98 in Calm   6.0 mph 58% 0.00 in 0.00 W/m2
00:19 72.8 °F 57.2 °F 29.98 in SE 4.0 mph 6.0 mph 58% 0.00 in 0.00 W/m2
00:24 72.8 °F 57.6 °F 29.98 in SE 1.0 mph 4.0 mph 59% 0.00 in 0.00 W/m2
00:29 72.8 °F 57.6 °F 29.97 in Calm   6.0 mph 59% 0.00 in 0.00 W/m2
00:34 72.6 °F 57.5 °F 29.97 in Calm   6.0 mph 59% 0.00 in 0.00 W/m2
00:39 72.5 °F 57.4 °F 29.97 in SE 5.0 mph 7.0 mph 59% 0.00 in 0.00 W/m2
00:44 72.4 °F 57.8 °F 29.97 in Calm   7.0 mph 60% 0.00 in 0.00 W/m2
00:49 72.2 °F 57.6 °F 29.97 in Calm   8.0 mph 60% 0.00 in 0.00 W/m2
00:54 72.2 °F 57.6 °F 29.97 in SE 6.0 mph 6.0 mph 60% 0.00 in 0.00 W/m2
00:59 72.1 °F 57.5 °F 29.97 in Calm   7.0 mph 60% 0.00 in 0.00 W/m2
01:04 72.1 °F 57.5 °F 29.97 in SE 5.0 mph 7.0 mph 60% 0.00 in 0.00 W/m2
01:09 72.0 °F 57.4 °F 29.97 in Calm     60% 0.00 in 0.00 W/m2
01:14 72.0 °F 57.8 °F 29.97 in SE 4.0 mph 7.0 mph 61% 0.00 in 0.00 W/m2
01:19 72.0 °F 57.8 °F 29.97 in SE 5.0 mph 8.0 mph 61% 0.00 in 0.00 W/m2
01:24 72.0 °F 57.8 °F 29.97 in Calm   7.0 mph 61% 0.00 in 0.00 W/m2
01:29 72.0 °F 57.8 °F 29.97 in Calm   8.0 mph 61% 0.00 in 0.00 W/m2
01:34 71.9 °F 57.7 °F 29.97 in ESE 4.0 mph 8.0 mph 61% 0.00 in 0.00 W/m2
01:39 71.9 °F 57.7 °F 29.97 in Calm   8.0 mph 61% 0.00 in 0.00 W/m2
01:44 71.9 °F 57.7 °F 29.97 in Calm   9.0 mph 61% 0.00 in 0.00 W/m2
01:49 71.9 °F 58.2 °F 29.97 in Calm   8.0 mph 62% 0.00 in 0.00 W/m2
01:54 71.9 °F 58.2 °F 29.97 in ESE 1.0 mph 6.0 mph 62% 0.00 in 0.00 W/m2
01:59 71.9 °F 58.2 °F 29.97 in Calm   7.0 mph 62% 0.00 in 0.00 W/m2
02:04 71.8 °F 58.1 °F 29.97 in ESE 5.0 mph 7.0 mph 62% 0.00 in 0.00 W/m2
02:09 71.7 °F 58.0 °F 29.97 in Calm     62% 0.00 in 0.00 W/m2
02:14 71.7 °F 58.0 °F 29.97 in ESE 5.0 mph 7.0 mph 62% 0.00 in 0.00 W/m2
02:19 71.6 °F 57.9 °F 29.97 in ESE 2.0 mph 7.0 mph 62% 0.00 in 0.00 W/m2
02:24 71.6 °F 58.4 °F 29.97 in Calm   7.0 mph 63% 0.00 in 0.00 W/m2
02:30 71.5 °F 58.3 °F 29.97 in Calm   2.0 mph 63% 0.00 in 0.00 W/m2
02:34 71.4 °F 58.2 °F 29.97 in Calm   7.0 mph 63% 0.00 in 0.00 W/m2
02:39 71.4 °F 58.2 °F 29.96 in Calm   7.0 mph 63% 0.00 in 0.00 W/m2
02:44 71.4 °F 58.2 °F 29.97 in Calm   8.0 mph 63% 0.00 in 0.00 W/m2
02:49 71.3 °F 58.1 °F 29.97 in ESE 4.0 mph 9.0 mph 63% 0.00 in 0.00 W/m2
02:54 71.3 °F 58.1 °F 29.97 in Calm   8.0 mph 63% 0.00 in 0.00 W/m2
03:00 71.3 °F 58.1 °F 29.96 in Calm     63% 0.00 in 0.00 W/m2
03:04 71.3 °F 58.1 °F 29.96 in ESE 2.0 mph 9.0 mph 63% 0.00 in 0.00 W/m2
03:09 71.3 °F 58.1 °F 29.96 in Calm   12.0 mph 63% 0.00 in 0.00 W/m2
03:14 71.3 °F 58.1 °F 29.96 in Calm   12.0 mph 63% 0.00 in 0.00 W/m2
03:19 71.3 °F 58.1 °F 29.96 in Calm   9.0 mph 63% 0.00 in 0.00 W/m2
03:24 71.2 °F 58.0 °F 29.96 in ESE 1.0 mph 12.0 mph 63% 0.00 in 0.00 W/m2
03:29 71.2 °F 58.0 °F 29.96 in ESE 1.0 mph 8.0 mph 63% 0.00 in 0.00 W/m2
03:34 71.2 °F 58.0 °F 29.96 in ESE 6.0 mph 8.0 mph 63% 0.00 in 0.00 W/m2
03:39 71.2 °F 58.0 °F 29.96 in ESE 4.0 mph 7.0 mph 63% 0.00 in 0.00 W/m2
03:45 71.2 °F 58.0 °F 29.96 in Calm   7.0 mph 63% 0.00 in 0.00 W/m2
03:49 71.2 °F 58.0 °F 29.97 in ESE 6.0 mph 8.0 mph 63% 0.00 in 0.00 W/m2
03:54 71.2 °F 58.0 °F 29.97 in ESE 2.0 mph 7.0 mph 63% 0.00 in 0.00 W/m2
03:59 71.3 °F 58.1 °F 29.96 in ESE 4.0 mph 7.0 mph 63% 0.00 in 0.00 W/m2
04:04 71.3 °F 58.1 °F 29.96 in ESE 4.0 mph 8.0 mph 63% 0.00 in 0.00 W/m2
04:09 71.3 °F 58.1 °F 29.96 in Calm   8.0 mph 63% 0.00 in 0.00 W/m2
04:15 71.3 °F 58.1 °F 29.97 in ESE 4.0 mph 4.0 mph 63% 0.00 in 0.00 W/m2
04:19 71.3 °F 58.1 °F 29.97 in ESE 2.0 mph 9.0 mph 63% 0.00 in 0.00 W/m2
04:24 71.3 °F 58.1 °F 29.97 in Calm   9.0 mph 63% 0.00 in 0.00 W/m2
04:30 71.3 °F 58.1 °F 29.97 in ESE 2.0 mph 2.0 mph 63% 0.00 in 0.00 W/m2
04:34 71.3 °F 57.6 °F 29.97 in East 6.0 mph 9.0 mph 62% 0.00 in 0.00 W/m2
04:39 71.3 °F 57.6 °F 29.97 in East 5.0 mph 11.0 mph 62% 0.00 in 0.00 W/m2
04:44 71.3 °F 57.6 °F 29.97 in Calm   8.0 mph 62% 0.00 in 0.00 W/m2
04:49 71.3 °F 57.6 °F 29.97 in East 5.0 mph 8.0 mph 62% 0.00 in 0.00 W/m2
04:54 71.2 °F 57.5 °F 29.97 in Calm   9.0 mph 62% 0.00 in 0.00 W/m2
04:59 71.2 °F 58.0 °F 29.97 in East 1.0 mph 8.0 mph 63% 0.00 in 0.00 W/m2
05:04 71.1 °F 57.9 °F 29.97 in East 4.0 mph 4.0 mph 63% 0.00 in 0.00 W/m2
05:09 71.1 °F 57.9 °F 29.97 in East 4.0 mph 11.0 mph 63% 0.00 in 0.00 W/m2
05:14 71.0 °F 57.8 °F 29.97 in East 1.0 mph 9.0 mph 63% 0.00 in 0.00 W/m2
05:19 71.0 °F 57.8 °F 29.97 in East 4.0 mph 4.0 mph 63% 0.00 in 0.00 W/m2
05:24 70.9 °F 57.7 °F 29.97 in Calm   8.0 mph 63% 0.00 in 0.00 W/m2
05:29 70.9 °F 57.7 °F 29.98 in Calm   9.0 mph 63% 0.00 in 0.00 W/m2
05:34 70.8 °F 57.6 °F 29.98 in East 11.0 mph 11.0 mph 63% 0.00 in 0.00 W/m2
05:39 70.7 °F 57.5 °F 29.98 in East 6.0 mph 13.0 mph 63% 0.00 in 0.00 W/m2
05:44 70.7 °F 57.5 °F 29.98 in East 6.0 mph 12.0 mph 63% 0.00 in 0.00 W/m2
05:49 70.6 °F 57.8 °F 29.98 in East 8.0 mph 12.0 mph 64% 0.00 in 0.00 W/m2
05:54 70.6 °F 57.8 °F 29.98 in East 7.0 mph 12.0 mph 64% 0.00 in 0.00 W/m2
05:59 70.6 °F 57.8 °F 29.98 in East 5.0 mph 9.0 mph 64% 0.00 in 7.00 W/m2
06:05 70.6 °F 57.8 °F 29.98 in East 6.0 mph 6.0 mph 64% 0.00 in 9.00 W/m2
06:09 70.6 °F 57.8 °F 29.98 in East 5.0 mph 7.0 mph 64% 0.00 in 11.00 W/m2
06:14 70.5 °F 57.8 °F 29.98 in East 8.0 mph 8.0 mph 64% 0.00 in 11.00 W/m2
06:19 70.6 °F 57.8 °F 29.98 in East 6.0 mph 11.0 mph 64% 0.00 in 14.00 W/m2
06:24 70.6 °F 57.8 °F 29.98 in East 7.0 mph 7.0 mph 64% 0.00 in 18.00 W/m2
06:29 70.6 °F 57.8 °F 29.98 in East 4.0 mph 9.0 mph 64% 0.00 in 25.00 W/m2
06:34 70.6 °F 57.8 °F 29.98 in East 4.0 mph 11.0 mph 64% 0.00 in 32.00 W/m2
06:39 70.6 °F 57.8 °F 29.99 in East 1.0 mph 8.0 mph 64% 0.00 in 46.00 W/m2
06:44 70.6 °F 57.8 °F 29.99 in East 6.0 mph 9.0 mph 64% 0.00 in 62.00 W/m2
06:49 70.7 °F 57.9 °F 29.99 in East 4.0 mph 11.0 mph 64% 0.00 in 74.00 W/m2
06:54 70.7 °F 57.9 °F 29.99 in East 1.0 mph 1.0 mph 64% 0.00 in 84.00 W/m2
06:59 70.7 °F 58.4 °F 29.99 in East 2.0 mph 11.0 mph 65% 0.00 in 70.00 W/m2
07:04 70.7 °F 58.4 °F 29.99 in East 5.0 mph 12.0 mph 65% 0.00 in 97.00 W/m2
07:09 70.7 °F 58.4 °F 29.99 in East 6.0 mph 6.0 mph 65% 0.00 in 120.00 W/m2
07:14 70.7 °F 58.4 °F 29.99 in Calm   11.0 mph 65% 0.00 in 155.00 W/m2
07:19 70.7 °F 58.4 °F 29.99 in East 1.0 mph 12.0 mph 65% 0.00 in 160.00 W/m2
07:24 70.7 °F 58.8 °F 29.99 in Calm     66% 0.00 in 183.00 W/m2
07:29 70.7 °F 58.8 °F 29.99 in East 6.0 mph 12.0 mph 66% 0.00 in 179.00 W/m2
07:34 70.8 °F 58.9 °F 30.00 in Calm   8.0 mph 66% 0.00 in 151.00 W/m2
07:39 70.8 °F 58.9 °F 30.00 in Calm     66% 0.00 in 230.00 W/m2
07:44 70.9 °F 59.0 °F 30.00 in East 2.0 mph 11.0 mph 66% 0.00 in 197.00 W/m2
07:49 71.0 °F 59.1 °F 30.00 in Calm   9.0 mph 66% 0.00 in 264.00 W/m2
07:54 71.1 °F 59.6 °F 30.00 in East 1.0 mph 1.0 mph 67% 0.00 in 225.00 W/m2
07:59 71.2 °F 59.7 °F 30.00 in Calm   8.0 mph 67% 0.00 in 229.00 W/m2
08:04 71.3 °F 59.8 °F 30.00 in East 1.0 mph 8.0 mph 67% 0.00 in 309.00 W/m2
08:09 71.4 °F 59.9 °F 30.00 in Calm   9.0 mph 67% 0.00 in 278.00 W/m2
08:14 71.5 °F 60.0 °F 30.00 in Calm   6.0 mph 67% 0.00 in 339.00 W/m2
08:19 71.7 °F 60.6 °F 30.00 in Calm   7.0 mph 68% 0.00 in 320.00 W/m2
08:24 71.8 °F 60.7 °F 30.00 in Calm   5.0 mph 68% 0.00 in 272.00 W/m2
08:29 71.9 °F 60.8 °F 30.00 in Calm   2.0 mph 68% 0.00 in 258.00 W/m2
08:34 72.0 °F 60.9 °F 30.00 in Calm   1.0 mph 68% 0.00 in 401.00 W/m2
08:39 72.2 °F 61.5 °F 30.00 in Calm     69% 0.00 in 371.00 W/m2
08:44 72.4 °F 62.1 °F 30.00 in Calm     70% 0.00 in 431.00 W/m2
08:49 72.6 °F 62.3 °F 30.00 in Calm     70% 0.00 in 459.00 W/m2
08:54 72.8 °F 62.9 °F 30.00 in Calm     71% 0.00 in 473.00 W/m2
08:59 73.0 °F 63.0 °F 30.01 in Calm     71% 0.00 in 483.00 W/m2
09:04 73.3 °F 63.3 °F 30.01 in Calm     71% 0.00 in 332.00 W/m2
09:09 73.8 °F 63.8 °F 30.01 in Calm     71% 0.00 in 508.00 W/m2
09:14 74.2 °F 63.0 °F 30.01 in Calm     68% 0.00 in 522.00 W/m2
09:19 74.7 °F 63.5 °F 30.01 in Calm     68% 0.00 in 538.00 W/m2
09:24 75.0 °F 62.9 °F 30.01 in Calm     66% 0.00 in 555.00 W/m2
09:29 75.3 °F 62.7 °F 30.01 in Calm     65% 0.00 in 564.00 W/m2
09:34 75.7 °F 63.5 °F 30.01 in Calm     66% 0.00 in 582.00 W/m2
09:39 76.0 °F 63.8 °F 30.02 in Calm     66% 0.00 in 598.00 W/m2
09:44 76.4 °F 64.2 °F 30.01 in Calm     66% 0.00 in 443.00 W/m2
09:49 76.7 °F 64.1 °F 30.01 in Calm     65% 0.00 in 519.00 W/m2
09:54 76.9 °F 63.4 °F 30.02 in Calm     63% 0.00 in 640.00 W/m2
09:59 77.1 °F 64.0 °F 30.02 in Calm     64% 0.00 in 643.00 W/m2
10:04 77.4 °F 63.8 °F 30.02 in East 2.0 mph 2.0 mph 63% 0.00 in 643.00 W/m2
10:09 77.6 °F 64.0 °F 30.02 in Calm   5.0 mph 63% 0.00 in 568.00 W/m2
10:14 77.8 °F 63.8 °F 30.02 in Calm   2.0 mph 62% 0.00 in 654.00 W/m2
10:19 78.0 °F 63.5 °F 30.02 in Calm     61% 0.00 in 636.00 W/m2
10:24 78.2 °F 63.2 °F 30.02 in Calm   2.0 mph 60% 0.00 in 573.00 W/m2
10:29 78.4 °F 63.4 °F 30.02 in Calm   4.0 mph 60% 0.00 in 559.00 W/m2
10:34 78.5 °F 62.5 °F 30.02 in East 4.0 mph 5.0 mph 58% 0.00 in 622.00 W/m2
10:39 78.6 °F 62.6 °F 30.02 in Calm   4.0 mph 58% 0.00 in 717.00 W/m2
10:44 78.9 °F 62.9 °F 30.02 in Calm   4.0 mph 58% 0.00 in 763.00 W/m2
10:49 79.2 °F 63.6 °F 30.02 in East 1.0 mph 4.0 mph 59% 0.00 in 749.00 W/m2
10:54 79.4 °F 62.9 °F 30.03 in Calm   5.0 mph 57% 0.00 in 721.00 W/m2
10:59 79.6 °F 63.0 °F 30.03 in Calm   2.0 mph 57% 0.00 in 765.00 W/m2
11:04 79.8 °F 63.2 °F 30.03 in East 1.0 mph 4.0 mph 57% 0.00 in 795.00 W/m2
11:09 80.0 °F 62.9 °F 30.03 in Calm   2.0 mph 56% 0.00 in 796.00 W/m2
11:14 80.3 °F 63.7 °F 30.03 in Calm   2.0 mph 57% 0.00 in 802.00 W/m2
11:19 80.6 °F 62.4 °F 30.03 in Calm   5.0 mph 54% 0.00 in 828.00 W/m2
11:24 80.8 °F 62.1 °F 30.03 in East 2.0 mph 2.0 mph 53% 0.00 in 795.00 W/m2
11:29 81.2 °F 62.5 °F 30.03 in Calm   2.0 mph 53% 0.00 in 758.00 W/m2
11:34 81.4 °F 62.1 °F 30.03 in East 4.0 mph 4.0 mph 52% 0.00 in 744.00 W/m2
11:39 81.6 °F 62.3 °F 30.03 in Calm   4.0 mph 52% 0.00 in 868.00 W/m2
11:44 81.7 °F 62.9 °F 30.03 in Calm   2.0 mph 53% 0.00 in 831.00 W/m2
11:49 81.7 °F 62.4 °F 30.03 in Calm   5.0 mph 52% 0.00 in 882.00 W/m2
11:54 81.9 °F 62.0 °F 30.03 in East 1.0 mph 5.0 mph 51% 0.00 in 580.00 W/m2
11:59 82.0 °F 62.1 °F 30.03 in East 2.0 mph 4.0 mph 51% 0.00 in 615.00 W/m2
12:04 82.0 °F 62.7 °F 30.03 in Calm   4.0 mph 52% 0.00 in 364.00 W/m2
12:09 82.0 °F 62.1 °F 30.03 in Calm   5.0 mph 51% 0.00 in 650.00 W/m2
12:14 82.0 °F 61.5 °F 30.03 in Calm   2.0 mph 50% 0.00 in 425.00 W/m2
12:19 82.1 °F 62.2 °F 30.03 in Calm   1.0 mph 51% 0.00 in 949.00 W/m2
12:24 82.3 °F 61.2 °F 30.03 in Calm   2.0 mph 49% 0.00 in 831.00 W/m2
12:29 82.6 °F 61.5 °F 30.03 in East 1.0 mph 4.0 mph 49% 0.00 in 666.00 W/m2
12:34 83.0 °F 61.9 °F 30.02 in Calm   6.0 mph 49% 0.00 in 791.00 W/m2
12:39 83.2 °F 62.6 °F 30.02 in Calm   2.0 mph 50% 0.00 in 747.00 W/m2
12:44 83.3 °F 62.2 °F 30.02 in Calm   5.0 mph 49% 0.00 in 557.00 W/m2
12:49 83.4 °F 62.8 °F 30.02 in Calm   2.0 mph 50% 0.00 in 819.00 W/m2
12:54 83.5 °F 62.9 °F 30.02 in East 2.0 mph 5.0 mph 50% 0.00 in 919.00 W/m2
12:59 83.9 °F 63.3 °F 30.02 in East 1.0 mph 4.0 mph 50% 0.00 in 888.00 W/m2
13:05 84.2 °F 63.6 °F 30.02 in East 1.0 mph 1.0 mph 50% 0.00 in 932.00 W/m2
13:09 84.6 °F 63.4 °F 30.02 in Calm   1.0 mph 49% 0.00 in 898.00 W/m2
13:14 84.7 °F 62.3 °F 30.01 in Calm   8.0 mph 47% 0.00 in 517.00 W/m2
13:19 84.8 °F 61.7 °F 30.02 in SSE 6.0 mph 7.0 mph 46% 0.00 in 904.00 W/m2
Foresthill Weather
 WU-history PHP script courtesy of   Juneau County Weather.
powered by Cumulus v1.9.3 (1059)
Ambient Weather VWS v14.00
Top Contact Website Map Copyright © 2007 - 2018 Foresthillweather.com Never base important decisions on this or any weather information obtained from the Internet